Content
SEND FEEDBACK

Daily
Averages
Monthly
Summary
United States of America

ST. LOUIS - SAINT LOUIS UNIVERSITY, MISSOURI


Home > North America > United States > Missouri
Elevation: 580 feet     Latitude: 38 38N     Longitude: 090 14W

WEATHER
 
SELECT A DAY
Number of Records: 186,223;   Date Range: 1/1/95 - 8/12/14
 
SHARE

PRINT THIS DATA

[ ← Previous Day ]
WEATHER ALMANAC - JULY 3, 2013
[ Next Day → ]
[ °C ]   °F
Weather ElementAverageHighLow
Temperature71.6 °F81 °F (2:53 pm)62.1 °F (3:53 am)
Dewpoint60 °F62.1 °F (6:53 pm)57.9 °F (10:53 am)
Humidity69 %93 % (3:53 am)45 % (2:53 pm)
Barometer30.05 in30.09 in (8:53 am)30.01 in (5:53 pm)
Wind Speed2.9 mph6.9 mph (1:53 pm)
Weather ElementAverage
Visibility10 mi
Wind DirectionESE (113.5 °)

Weather ElementTotal
Precipitation---
Cooling Degree Days6.6 (Base 65)
Growing Degree Days21.6 (Base 50)
Averaged from 23 records on July 3, 2013
WEATHER CONDITIONS BREAKOUT
WIND DIRECTION BREAKOUT
WEATHER BY HOUR - JULY 3, 2013
[ °C ]   °F
Local TimeTemperatureDewpointHumidityBarometerVisibilityWind DirectionWind SpeedGust SpeedPrecipitationEventsConditions
1:53 AM63.0 °F60.1 °F90 %30.03 in10.0 miWSW (250°)3.5 mphOvercast
2:53 AM63.0 °F60.1 °F90 %30.02 in10.0 miCalmOvercast
3:53 AM62.1 °F60.1 °F93 %30.03 in9.0 miCalmMostly Cloudy
4:53 AM62.1 °F60.1 °F93 %30.04 in10.0 miSW (230°)3.5 mphOvercast
5:53 AM63.0 °F60.1 °F90 %30.06 in10.0 miWSW (240°)4.6 mphOvercast
6:53 AM63.0 °F60.1 °F90 %30.07 in10.0 miCalmMostly Cloudy
7:53 AM66.9 °F59.0 °F76 %30.07 in10.0 miCalmMostly Cloudy
8:53 AM66.9 °F61.0 °F81 %30.09 in10.0 miWSW (250°)3.5 mphPartly Cloudy
9:53 AM70.0 °F59.0 °F68 %30.09 in10.0 miCalmMostly Cloudy
10:53 AM73.9 °F57.9 °F57 %30.09 in10.0 miCalmPartly Cloudy
11:53 AM75.9 °F60.1 °F58 %30.08 in10.0 miWSW (250°)5.8 mphClear
12:53 PM78.1 °F59.0 °F52 %30.07 in10.0 miCalmScattered Clouds
1:53 PM79.0 °F59.0 °F50 %30.06 in10.0 miSouth (180°)6.9 mphScattered Clouds
2:53 PM81.0 °F57.9 °F45 %30.05 in10.0 miCalmScattered Clouds
3:53 PM81.0 °F57.9 °F45 %30.04 in10.0 miCalmScattered Clouds
4:53 PM81.0 °F59.0 °F47 %30.02 in10.0 miSE (140°)5.8 mphClear
5:53 PM81.0 °F61.0 °F50 %30.01 in10.0 miSE (140°)5.8 mphClear
6:53 PM78.1 °F62.1 °F58 %30.01 in10.0 miSSE (150°)5.8 mphPartly Cloudy
7:53 PM75.9 °F61.0 °F60 %30.03 in10.0 miSSE (150°)5.8 mphClear
8:53 PM73.0 °F61.0 °F66 %30.04 in10.0 miSSE (150°)3.5 mphClear
9:53 PM70.0 °F62.1 °F76 %30.05 in10.0 miSSE (160°)4.6 mphClear
10:53 PM69.1 °F62.1 °F78 %30.06 in10.0 miSSE (160°)4.6 mphClear
11:53 PM69.1 °F61.0 °F75 %30.07 in10.0 miSSE (160°)3.5 mphClear
Hourly data recorded from KCPS, located miles away from St. Louis - Saint Louis University, Missouri







STORIES FROM OUR PARTNERS